www.pogodaiklimat.ru

Погода и климат >> Архив погоды >> Таиланд >> Буа Чум


ПОГОДА в Буа Чум

  • Прогноз погоды в Буа Чум
  • Монитор погоды в Буа Чум

АРХИВ ПОГОДЫ в Буа Чум

Время (UTC), дата Ветер
(напр.,м/с)
 
Видим.   Явления Облачность Т
(С)
Тd
(С)
f
(%)
Тe
(С)
Тes
(С)
Комфортность P
(гПа)
Po
(гПа)
Тmin
(С)
Tmax
(С)
R
(мм)
R24
(мм)
S
(см)
09 14.07 штиль 0 10 км 9/5 300 м
[Cb cap Ac As Cs]
+33.6 +26.2 65 +50 +53 опасность
перегрева
1004.2 998.5
12 14.07 штиль 0 10 км 10/4 600 м
[Cu Sc Ac As Cs]
+31.4 +25.5 71 +46 +46 опасность
перегрева
1004.2 998.4 +34.2
15 14.07 штиль 0 10 км 10/3 600 м
[Cu Sc As trans Cs]
+29.0 +25.8 83 +43 +43 опасность
перегрева
1006.2 1000.4
18 14.07 Ю 2 10 км 10/0
[As trans Cs]
+27.5 +25.1 87 +40 +40 очень
душно
1006.1 1000.2
21 14.07 штиль 0 10 км 10/0
[As trans Cs]
+26.2 +24.6 91 +37 +37 очень
душно
1005.0 999.2
00 15.07 штиль 0 10 км 10/5 600 м
[Sc As trans Cs]
+25.6 +24.1 91 +35 +36 очень
душно
1005.5 999.6 +24.7
03 15.07 ЮЗ 3 10 км 9/4 600 м
[Cu Sc Ac lent Cs]
+31.0 +26.2 76 +47 +52 опасность
перегрева
1006.4 1000.6
06 15.07 ЮЗ 3 10 км 9/4 600 м
[Cu Sc Ac inh Cs]
+34.5 +26.3 62 +51 +57 опасность
перегрева
1004.3 998.6
09 15.07 ЮЗ 4 10 км 9/5 300 м
[Cb cap Ac As Cs]
+35.6 +26.6 60 +53 +54 опасность
перегрева
1002.9 997.2
12 15.07 штиль 0 10 км 9/5 600 м
[Cu Sc Ac As Cs]
+32.0 +24.5 65 +45 +45 опасность
перегрева
1003.1 997.3 +36.6
15 15.07 штиль 0 10 км 8/3 600 м
[Sc Ac und Cs]
+29.2 +25.4 80 +43 +43 опасность
перегрева
1005.8 1000.0
18 15.07 штиль 0 10 км 8/3 600 м
[Sc As trans Cs]
+27.8 +24.6 83 +39 +39 очень
душно
1005.2 999.4
21 15.07 штиль 0 10 км 8/0
[As trans Cs]
+26.3 +24.7 91 +37 +37 очень
душно
1004.8 998.9
00 16.07 штиль 0 10 км 8/4 600 м
[Sc Ac lent Cs]
+25.6 +24.3 93 +36 +37 очень
душно
1005.7 999.8 +24.4
03 16.07 штиль 0 10 км 8/3 600 м
[Cu Sc Ac lent Cs]
+31.4 +24.3 66 +44 +53 опасность
перегрева
1006.4 1000.6
06 16.07 В 4 10 км 5/4 600 м
[Cu med, cong Cs]
+34.6 +25.3 59 +49 +57 опасность
перегрева
1004.3 998.6
09 16.07 штиль 0 10 км 6/4 600 м
[Cu med, cong Ac lent Cs]
+37.2 +27.2 57 +56 +61 опасность
перегрева
1001.0 995.4
12 16.07 ЮЗ 4 10 км 8/5 600 м
[Cu Sc Cs]
+33.4 +24.6 60 +46 +46 опасность
перегрева
1001.7 996.0 +38.2
15 16.07 штиль 0 10 км 9/3 600 м
[Sc Ac lent Cs]
+30.4 +26.2 78 +46 +46 опасность
перегрева
1004.2 998.4
18 16.07 Ю 3 10 км 8/0
[As trans Cs]
+29.1 +24.7 77 +41 +41 опасность
перегрева
1004.4 998.6
21 16.07 штиль 0 10 км 5/0
[As trans Cs]
+27.5 +25.4 88 +40 +40 очень
душно
1003.4 997.5
00 17.07 ЮЗ 3 10 км 8/4 600 м
[Sc Ac lent Cs]
+26.9 +24.7 88 +38 +39 очень
душно
1004.3 998.5 +25.7
03 17.07 Ю 4 10 км 8/4 600 м
[Cu Sc Ac lent Cs]
+31.5 +25.1 69 +45 +50 опасность
перегрева
1005.1 999.3
06 17.07 Ю 4 10 км 8/3 600 м
[Cu med, cong As trans Cs]
+35.0 +25.2 57 +49 +55 опасность
перегрева
1003.4 997.7
09 17.07 ЮЗ 2 10 км 9/5 600 м
[Cu Sc As trans Cs]
+35.0 +25.5 58 +50 +52 опасность
перегрева
1001.0 995.3
12 17.07 Ю 2 10 км 8/4 600 м
[Sc As trans Cs]
+32.7 +24.8 63 +46 +46 опасность
перегрева
1001.2 995.4 +36.4
15 17.07 ЮЗ 3 10 км 8/0
[Cs]
+30.1 +25.9 78 +45 +45 опасность
перегрева
1004.1 998.3
18 17.07 Ю 3 10 км 10/0
[As trans Cs]
+28.8 +25.7 83 +43 +43 опасность
перегрева
1003.8 998.0
21 17.07 Ю 4 10 км 8/0
[As trans Cs]
+27.6 +25.9 90 +41 +41 опасность
перегрева
1003.0 997.2
00 18.07 штиль 0 10 км 8/4 600 м
[Sc Ac lent Cs]
+27.7 +26.3 92 +42 +43 опасность
перегрева
1004.0 998.2 +26.2
03 18.07 ЮЗ 2 10 км 8/4 600 м
[Cu Sc Ac lent Cs]
+32.1 +25.0 66 +46 +52 опасность
перегрева
1004.5 998.7
06 18.07 ЮЗ 3 10 км 8/4 600 м
[Cu med, cong As trans Cs]
+35.6 +25.2 55 +49 +57 опасность
перегрева
1002.9 997.2
09 18.07 ЮЗ 4 10 км 8/4 600 м
[Cu Sc As trans Cs]
+36.0 +25.4 55 +51 +53 опасность
перегрева
1001.1 995.4
12 18.07 Ю 3 10 км 8/4 600 м
[Cu Sc Ac lent Cs]
+33.2 +25.3 63 +47 +47 опасность
перегрева
1002.1 996.4 +36.7
15 18.07 Ю 4 10 км 8/0
[As trans Cs]
+30.8 +26.6 78 +47 +47 опасность
перегрева
1003.9 998.2
18 18.07 Ю 3 10 км 8/0
[As trans Cs]
+28.7 +25.7 84 +43 +43 опасность
перегрева
1004.0 998.2
21 18.07 Ю 3 10 км 8/0
[As trans Cs]
+27.8 +26.2 91 +42 +42 опасность
перегрева
1003.1 997.2
00 19.07 Ю 4 10 км 9/4 600 м
[Sc As trans Cs]
+27.6 +26.3 93 +42 +42 опасность
перегрева
1004.5 998.6 +26.5
03 19.07 ЮЗ 3 10 км 8/4 600 м
[Cu Sc As trans Cs]
+32.2 +25.9 69 +47 +53 опасность
перегрева
1005.4 999.7
06 19.07 З 2 10 км 8/6 600 м
[Cu Sc Ci fib]
+36.5 +25.3 53 +51 +58 опасность
перегрева
1003.9 998.2
09 19.07 Ю 3 10 км 4/3 600 м
[Cu Sc Ci fib]
+37.5 +24.9 49 +51 +55 опасность
перегрева
1001.0 995.4
12 19.07 штиль 0 10 км 6/3 600 м
[Cb cap Ci fib]
+33.5 +25.8 64 +49 +49 опасность
перегрева
1002.1 996.3 +38.4
15 19.07 З 3 10 км 6/3 600 м
[Cb cap Ci fib]
+31.0 +26.1 75 +46 +46 опасность
перегрева
1005.2 999.4
18 19.07 штиль 0 10 км 6/3 600 м
[Sc Ac lent Ci fib]
+27.7 +25.0 85 +40 +40 очень
душно
1005.3 999.4
21 19.07 штиль 0 10 км 3/0
[Ci fib]
+26.5 +23.6 84 +36 +36 очень
душно
1004.8 998.9
00 20.07 ЮЗ 2 10 км 3/0
[Ci fib]
+26.0 +24.1 89 +36 +37 очень
душно
1006.3 1000.4 +24.8
03 20.07 ЮЗ 5 10 км 6/1 600 м
[Cu hum Ci fib]
+32.6 +25.6 67 +48 +54 опасность
перегрева
1006.7 1001.0
06 20.07 ЮЗ 2 10 км 9/4 600 м
[Cu Sc Ci fib]
+35.5 +25.8 57 +50 +61 опасность
перегрева
1005.0 999.3
09 20.07 ЮЗ 2 10 км 9/5 600 м
[Cu Sc Ci fib]
+35.5 +25.8 57 +50 +54 опасность
перегрева
1002.6 996.9
12 20.07 Ю 3 10 км 8/3 600 м
[Sc Cs]
+33.0 +25.1 63 +47 +47 опасность
перегрева
1003.6 997.9 +37.5
15 20.07 ЮЗ 3 10 км 6/3 600 м
[Sc Ci fib]
+29.6 +25.9 81 +44 +44 опасность
перегрева
1006.3 1000.4
18 20.07 штиль 0 10 км 8/5 600 м
[Sc Ci fib]
+28.5 +25.7 85 +42 +42 опасность
перегрева
1006.3 1000.5
21 20.07 ЮЗ 5 10 км 10/6 600 м
[Sc Ac und Cs]
+27.6 +26.0 91 +41 +41 опасность
перегрева
1006.1 1000.3
00 21.07 штиль 0 10 км 9/4 600 м
[Sc Ac und Cs]
+27.5 +26.4 94 +42 +43 опасность
перегрева
1007.4 1001.5 +26.3
03 21.07 Ю 4 10 км 9/8 600 м
[Sc Ac und Cs]
+31.5 +26.6 75 +48 +50 опасность
перегрева
1008.0 1002.2

 

Местоположение метеостанции Буа Чум (Таиланд): широта 15.27 долгота 101.18 высота над уровнем моря 50 м.

В архиве по умолчанию представлена погода в Буа Чум за последнюю неделю. Архивные данные за месяц целиком и за предыдущие месяцы, начиная с января 2011 года, Вы можете получить, выбрав интересующий диапазон дат из раскрывающегося списка и нажав кнопку "Ввод!".


*Определитесь, кто Вы:
робот инопланетянин человек

Внимание! Время в таблицах - всемирное. Для получения местного времени необходимо прибавить поправку, которая равна 7 ч.

Смотрите также архив погоды в соседних городах и на ближайших метеорологических станциях:

Погода в Лаем-Чабанге (Таиланд) (39 км)
Погода в Вичан Бури (Таиланд) (41 км)
Погода в Пакчонг Агромете (Таиланд) (73 км)
Погода в Такфа Агромете (Таиланд) (73 км)
Погода в Лопбури (Таиланд) (81 км)
Погода в Сарабури (Таиланд) (88 км)
Погода в Аюттхая (Таиланд) (97 км)
Погода в Накхон Ратчасима (Таиланд) (102 км)
Погода в Чайнат Агромете (Таиланд) (108 км)
Погода в Чайяпхуме (Таиланд) (108 км)

Пояснения к столбцам:

Ветер - указаны скорость ветра в м/с - средняя за 10 мин, порывы в срок и между сроками (в фигурных скобках) и направление, откуда дует ветер: С - северный, СВ - северо-восточный, В - восточный, ЮВ - юго-восточный, Ю - южный, ЮЗ - юго-западный, З - западный, СЗ - северо-западный.
Видимость - горизонтальная дальность видимости в метрах или километрах. При видимости от 1 до 10 км при отсутствии осадков обычно наблюдается дымка, при ухудшении видимости до 1 км и менее - туман. В сухую погоду видимость может ухудшаться дымом, пылью или мглою.
Явления - указаны атмосферные явления, наблюдавшиеся в срок или в последний час перед сроком; фигурными скобками обозначены явления, наблюдавшиеся между сроками (за 1-3 часа до срока); квадратными скобками обозначены град или гололедные отложения с указанием их диаметра в мм.
Облачность - указаны через наклонную черту общая и нижняя облачность в баллах и высота нижней границы облаков в метрах; квадратными скобками обозначены формы облаков: Ci - перистые, Cs - перисто-слоистые, Cc - перисто-кучевые, Ac - высококучевые, As - высокослоистые, Sc - слоисто-кучевые, Ns - слоисто-дождевые, Cu - кучевые, Cb - кучево-дождевые. Подробнее классификацию облаков см. в Атласе облаков (PDF).
T - Температура воздуха - температура, измеренная на высоте 2 м над землей.
Td - Температура точки росы - температура, при понижении до которой содержащийся в воздухе водяной пар достигнет насыщения.
f - Относительная влажность воздуха - влажноcть воздуха, измеренная на высоте 2 м над землей.
Te - Эффективная температура - температура, которую ощущает одетый по сезону человек в тени. Характеристика душности погоды. При расчете учитывается влияние влажности воздуха и скорости ветра на теплоощущения человека.
Tes - Эффективная температура на солнце - температура, которую ощущает человек, с поправкой на солнечный нагрев. Характеристика знойности погоды. Зависит от высоты солнца над горизонтом, облачности и скорости ветра. Ночью, в пасмурную погоду, а также при ветре 12 м/с и более поправка равна нулю.
P - Атмосферное давление - приведенное к уровню моря атмосферное давление.
Po - Атмосферное давление - измеренное на уровне метеостанции атмосферное давление.
Tmin - Минимальная температура - минимум температуры воздуха на высоте 2 м над землей.
Tmax - Максимальная температура - максимум температуры воздуха на высоте 2 м над землей.
R - Количество осадков - Количество выпавших осадков за период времени, мм. При наведении курсора мыши на число - период времени, за который выпало указанное количество осадков.
R24 - Количество осадков - Количество выпавших осадков за 24 часа, мм.
S - Снежный покров - Высота снежного покрова, см. При наведении курсора мыши на число - состояние снежного покрова и степень покрытия местности в баллах.